SL-8 DEB, 1392

Orbit data source: Space-Track

SL-8 DEB, 1392 is space debris in LEO originally from a launch on Mon, 15 Mar 1965 UTC launched from the Tyuratam Missile And Space Complex (TTMTR). Debris objects in space refer to the collection of defunct objects orbiting the Earth. Examples of debris include non-operational satellites, rocket bodies, and fragments generated from explosions, collisions, or faulty payload assembly.

Loading next visibility...
SL-8 DEB details
Identifier
1392, 1965-020AH
Orbit
LEO
Last TLE update15 hours ago
Origin
Flag of CISRVSN (CIS)
ManufacturerUnknown
MissionSpacecraft
Bus & MotorUnknown
MassUnknown
Launch date (UTC)
1965-03-15 (60 years ago)
Launch vehicleUnknown
Launch site
Tyuratam Missile And Space Complex (TTMTR)
Object type
Payload
Rocket body
Debris
Shape & HBRUnknown
Radar Cross SectionMedium (>0.1 m² and <1 m²)

Expand to show TLE details & history

TLE from 15 hours ago
0 SL-8 DEB
1 01392U 65020AH  24355.87979490  .00043996  00000-0  34816-2 0  9995
2 01392  55.8709 319.7352 0229680 341.8566  17.4348 14.81821136 14592
Epoch: 2024-12-20T21:06Z
Definitive object data (Epoch: 2024-12-20T21:06:54.279Z)
Latitude0.00004°
Longitude-86.9299°
Altitude471.659 km
Speed7.714 km/s
True Right ascension21h 18m 56s
True Declination0° 00' 00"
Sunlit
Object was in daylight at TLE epoch
Visualization TLE readout
Latitude34.91482°
Longitude62.44388°
Altitude768.995 km
Speed7.397 km/s
Apparent Right ascension03h 52m 52s
Apparent Declination0° 00' 22"
Sunlit
Object is in full shadow
Visualization observer readout
Local Sidereal Time11:19:35
Azimuth284.307° WNW
Elevation-16.466°
Doppler factor1
Orbital elements
Apogee altitude784.222 km
Perigee altitude462.599 km
Semi-major axis7,001.548 km
Eccentricity0.022968
Inclination55.8709°
RAAN319.7352°
Arg. of periapsis341.8566°
True anomaly18.24554°
Mean anomaly17.4348°
Eccentric anomaly17.83791°
Mean motion3.70469 °/min
BSTAR0.0034816
Orbital period97.17 mins
Loading maneuver chart data...
Loading historical data...
Loading historical data...
Loading historical data...
Loading historical data...
Loading historical data...
Loading historical data...
Loading historical data...

SL-8 DEB Visibility forecast

Observer location: undefined°, undefined

Span
Click to sort rows by Start time (UTC) header in descending order
Start Az.
Max El. time (UTC)
Max El. Az.
Max El.
End time (UTC)
End Az.
5 mins2024-12-21 23:09:49.239Z170.32° S2024-12-21 23:12:49.239Z112.698° SE20.687°2024-12-21 23:14:49.239Z79.085° E
6 mins2024-12-22 00:50:49.239Z262.75° W2024-12-22 00:52:49.239Z316.018° NNW34.406°2024-12-22 00:56:49.239Z33.724° NE
6 mins2024-12-22 05:57:49.239Z348.597° N2024-12-22 05:59:49.239Z20.397° NNE23.071°2024-12-22 06:03:49.239Z79.265° E
9 mins2024-12-22 07:37:49.239Z311.152° NW2024-12-22 07:41:49.239Z212.42° SW44.437°2024-12-22 07:46:49.239Z141.196° SSE
|